Overview Statistics Trail Chart Weather Telemetry Raw packets
 

This is the latest recevied weather packets stored in our database for station/object KG5CK-1. If no packets are shown the sender has not sent any weather packets the latest 10 day(s).

<< 28 29 30 31 32 33 34 >>
Time Temp. Humidity Pressure Rain* Wind** Luminosity Snow
1788657843 31.11° C 64% 1007.4 hPa 0 mm 1.79 m/s, 135° - -
1788657782 31.11° C 64% 1007.4 hPa 0 mm 1.79 m/s, 135° - -
1788657722 31.11° C 64% 1007.4 hPa 0 mm 1.79 m/s, 135° - -
1788657662 31.11° C 64% 1007.4 hPa 0 mm 1.79 m/s, 135° - -
1788657603 31.67° C 63% 1007.6 hPa 0 mm 1.34 m/s, 160° - -
1788657543 31.67° C 63% 1007.6 hPa 0 mm 1.34 m/s, 160° - -
1788657482 31.67° C 63% 1007.6 hPa 0 mm 1.34 m/s, 160° - -
1788657423 31.67° C 63% 1007.6 hPa 0 mm 1.34 m/s, 160° - -
1788657363 31.67° C 63% 1007.6 hPa 0 mm 1.34 m/s, 160° - -
1788657303 31.67° C 62% 1007.5 hPa 0 mm 1.79 m/s, 194° - -
1788657242 31.67° C 62% 1007.5 hPa 0 mm 1.79 m/s, 194° - -
1788657183 31.67° C 62% 1007.5 hPa 0 mm 1.79 m/s, 194° - -
1788657122 31.67° C 62% 1007.5 hPa 0 mm 1.79 m/s, 194° - -
1788657062 31.67° C 62% 1007.5 hPa 0 mm 1.79 m/s, 194° - -
1788657003 32.22° C 61% 1007.3 hPa 0 mm 3.58 m/s, 157° - -
1788656943 32.22° C 61% 1007.3 hPa 0 mm 3.58 m/s, 157° - -
1788656882 32.22° C 61% 1007.3 hPa 0 mm 3.58 m/s, 157° - -
1788656822 32.22° C 61% 1007.3 hPa 0 mm 3.58 m/s, 157° - -
1788656763 32.22° C 61% 1007.3 hPa 0 mm 3.58 m/s, 157° - -
1788656703 32.78° C 60% 1007.3 hPa 0 mm 2.24 m/s, 125° - -
1788656642 32.78° C 60% 1007.3 hPa 0 mm 2.24 m/s, 125° - -
1788656583 32.78° C 60% 1007.3 hPa 0 mm 2.24 m/s, 125° - -
1788656523 32.78° C 60% 1007.3 hPa 0 mm 2.24 m/s, 125° - -
1788656463 32.78° C 60% 1007.3 hPa 0 mm 2.24 m/s, 125° - -
1788656402 32.78° C 57% 1007.3 hPa 0 mm 1.79 m/s, 153° - -

* Rain latest hour (hover to see other rain measurements)
** Current wind speed in m/s (hover to see current wind gust speed)